Location: Newark
(12.4436°N, 0.6167°W)
Time: 12:06:16
(UTC+00:00)

deb Explorer IX - Pass Details

Date: 10 December 2019
Orbit: 548 x 1101 km, 38.8° (Epoch: 23 January)

Event Time Altitude Azimuth Distance (km) Brightness Sun altitude
Rises 23:27:21 0° 308° (NW) 3,900 - -77.6°
Reaches altitude 10° 23:30:07 10° 307° (NW) 2,950 - -77.9°
Maximum altitude 23:37:27 82° 221° (SW) 1,085 - -78.7°
Drops below altitude 10° 23:44:20 10° 133° (SE) 2,773 - -79.2°
Sets 23:46:53 0° 132° (SE) 3,655 - -79.3°
